This is the latest recevied weather packets stored in our database for station/object XE2KK-10. If no packets are shown the sender has not sent any weather packets the latest 10 day(s).
| Time | Temp. | Humidity | Pressure | Rain* | Wind** | Luminosity | Snow |
|---|---|---|---|---|---|---|---|
| 1777558153 | 25° C | 74% | 1010.7 hPa | 0 mm | - | 85 W/m² | - |
| 1777557253 | 25° C | 74% | 1010.4 hPa | 0 mm | - | 53 W/m² | - |
| 1777556953 | 25° C | 74% | 1010.9 hPa | 0 mm | - | 59 W/m² | - |
| 1777556653 | 25° C | 74% | 1010.6 hPa | 0 mm | - | 54 W/m² | - |
| 1777556353 | 25° C | 75% | 1010.7 hPa | 0 mm | - | 38 W/m² | - |
| 1777556052 | 25° C | 75% | 1010.5 hPa | 0 mm | - | 26 W/m² | - |
| 1777555752 | 25° C | 76% | 1010.9 hPa | 0 mm | - | 23 W/m² | - |
| 1777555453 | 25° C | 77% | 1010.7 hPa | 0 mm | - | 22 W/m² | - |
| 1777555153 | 24.44° C | 78% | 1010.6 hPa | 0 mm | - | 24 W/m² | - |
| 1777554853 | 25° C | 81% | 1010.6 hPa | 0 mm | - | 23 W/m² | - |
| 1777554553 | 25° C | 82% | 1010.7 hPa | 0 mm | - | 21 W/m² | - |
| 1777553952 | 25° C | 82% | 1010.3 hPa | 0 mm | - | 18 W/m² | - |
| 1777553353 | 25° C | 82% | 1010.5 hPa | 0 mm | - | 29 W/m² | - |
| 1777553053 | 25° C | 82% | 1010.2 hPa | 0 mm | - | 38 W/m² | - |
| 1777552753 | 25° C | 82% | 1010.3 hPa | 0 mm | - | 35 W/m² | - |
| 1777552452 | 25° C | 81% | 1010.3 hPa | 0 mm | - | 26 W/m² | - |
| 1777552152 | 25° C | 81% | 1010.3 hPa | 0 mm | - | 17 W/m² | - |
| 1777551553 | 25° C | 81% | 1010.2 hPa | 0 mm | - | 11 W/m² | - |
| 1777550953 | 25° C | 81% | 1010.1 hPa | 0 mm | - | 2 W/m² | - |
| 1777549753 | 25.56° C | 80% | 1009.9 hPa | 0 mm | - | 0 W/m² | - |
| 1777549153 | 25.56° C | 80% | 1009.5 hPa | 0 mm | - | 0 W/m² | - |
| 1777548852 | 25.56° C | 80% | 1010 hPa | 0 mm | - | 0 W/m² | - |
| 1777548253 | 25.56° C | 80% | 1010.1 hPa | 0 mm | - | 0 W/m² | - |
| 1777547953 | 25.56° C | 80% | 1010 hPa | 0 mm | - | 0 W/m² | - |
| 1777547653 | 25.56° C | 80% | 1009.8 hPa | 0 mm | - | 0 W/m² | - |
* Rain latest hour (hover to see other rain measurements)
** Current wind speed in m/s (hover to see current wind gust speed)